Погода в Дербенте

Погода в Дербенте : погода сейчас, прогноз погоды и архив. Всё, что Вы хотите узнать о погоде в Дербенте!

Поиск расширенной информации на нашем сайте:

Другие новости

Новости СМИ2

Главная страница сайта

Новости сайта

03.07.2017

Напоминаем, что на нашем специализированном сайте Метеоцентр.Азия вы можете получить высокодетализированные автоматические прогнозы погоды по пунктам России, СНГ и мира в авиационном формате (включающие направление и скорость ветра, видимость, явления погоды, количество и форму облачности, нижнюю и верхнюю границу облачности).


Погода в Дербенте - сегодня

Время (UTC), дата Ветер
(°,м/с) 
Видим.   Явления Облачность Т
(°С)
Тd
(°С)
f(%) Тe
(°С)
Pmin
(гПа)
dP
(гПа)
Po
(мм)
O2
(г/м3)
Тmin Tmax R s Состояние
почвы
06 15.06.18 360 (С) 20000 м    ясно 
+26.4 +18.4 61 +41  1006.5  -0.4  756  274           
09 15.06.18 120 (ЮВ) 20000 м    ясно 
+26.1 +18.2 62 +41  1006.3  -0.2  756  274           
12 15.06.18 100 (В) 20000 м    8/5 600 м средняя, верхняя 
[Cu med, cong|Ac cuf|Ci sp]
+25 +18.6 68 +40  1005.5  -0.7  756  275           
18 15.06.18 тихо ()   10 км    8/8 600 м 
[Sc]
+21.3 +18.1 82 +36  1005.1  0.7  755  278           
21 15.06.18 320 (СЗ) 10 км    8/8 600 м 
[Sc]
+23.3 +16.6 66 +35  1005.8  0.7  756  277           
00 16.06.18 340 (С) 10 км    8/0 средняя 
[Ac trans]
+20.7 +16 74 +31    -0.6  755  280           
06 16.06.18 360 (С) 20000 м    ясно 
+26.2 +18.3 62 +41  1005.3  0.2  756  274           
09 16.06.18 360 (С) 20000 м    ясно 
+28.2 +16.5 49 +39  1005.8  0.4  756  273           
12 16.06.18 360 (С) 20000 м    8/5 600 м средняя, верхняя 
[Cu med, cong|Ac cuf|Ci sp]
+27.6 +14.5 45 +35  1006.2  0.5  756  274           
18 16.06.18 350 (С) 10 км    ясно 
+23.5 +6.2 33 +24  1006.4  756  280           
21 16.06.18 тихо ()   10 км    ясно 
+22.2 +13.3 57 +28  1007  0.6  757  279           
00 17.06.18 310 (СЗ) 10 км    ясно 
+23.6 +8.2 37 +24  1006.7  -0.3  757  279           
06 17.06.18 320 (СЗ) 20000 м    9/6 600 м средняя, верхняя 
[Sc|Ac trans|Ci fib]
+26.8 +18 59 +41  1007.5  1.2  757  274           
09 17.06.18 330 (СЗ) 4{11}  20000 м    9/9 600 м 
[Sc]
+27.3 +15.6 49 +37  1006.9  -0.6  757  274           
12 17.06.18 350 (С) 20000 м    9/8 300 м кучево-дожд., средняя 
[Cb cap|Ac cuf]
+25.2 +18.9 68 +41  1006.9  -0.1  757  275           
18 17.06.18 320 (СЗ) 10 км  {ливн. осадки}  6/4 300 м кучево-дожд., средняя 
[Cb cap|Ac trans]
+22.2 +17.5 75 +35  1008.5  0.9  758  279           
21 17.06.18 300 (СЗ) 10 км    ясно 
+21.6 +16.5 73 +33  1009  0.5  758  280           
00 18.06.18 300 (СЗ) 10 км    ясно 
+20.8 +14.7 68 +29  1008.7  -0.3  758  281           
06 18.06.18 360 (С) 20000 м    ясно 
+26.6 +14.1 46 +33  1008.7  -0.3  758  276           
09 18.06.18 360 (С) 20000 м    ясно 
+27.6 +17.8 55 +41  1008.9  0.2  758  273           
12 18.06.18 360 (С) 20000 м    8/4 300 м кучево-дожд., средняя, верхняя 
[Cb cap|Ac cuf|Ci fib]
+26.1 +16 54 +36  1009.3  0.5  759  276           
18 18.06.18 тихо ()   10 км    4/0 средняя 
[Ac trans]
+21.6 +11.6 53 +25  1010.5  0.6  759  281           
21 18.06.18 300 (СЗ) 10 км    ясно 
+20.7 +12.4 59 +25  1009.6  -0.9  759  282           
00 19.06.18 260 (З) 10 км    ясно 
+18.5 +9.3 55 +20  1010.2  0.6  759  285           
06 19.06.18 320 (СЗ) 20000 м    8/6 600 м средняя 
[Sc|Ac trans]
+23.8 +14.1 55 +31  1012  1.4  761  279           
Время (UTC), дата Ветер
(°,м/с) 
Видим.   Явления Облачность Т
(°С)
Тd
(°С)
f(%) Тe
(°С)
Pmin
(гПа)
dP
(гПа)
Po
(мм)
O2
(г/м3)
Тmin Tmax R s Состояние
почвы

Для получения пояснительной информации подведите курсор к названию столбца.

ПОГОДА в Дербенте - архив

Всё, что Вы хотите узнать о погоде в Дербенте - удобно и подробно!

Выберите нужную дату (начиная с 1 января 2015* года) и нажмите кнопку "Найти".
Будут отображены архивные сводки погоды по пункту Дербент, начиная с указанной даты.


Отображать данные в формате CSV (для использования в таблицах Excel)


Внимание! Наш архив погоды предназначен исключительно для личного некоммерческого использования в познавательных целях. Если Вам необходимы официальные справки о состоянии погоды (для производственных, юридических, коммерческих и т.п. целей), обращайтесь в органы Росгидромета.

*Примечание: данная дата относится к архиву по метеостанциям СССР (Россия, СНГ, Балтия).
Архив по метеостанциям Зарубежной Европы и Азии (кроме Китая) хранится 10 дней, по другим регионам земного шара (Китай, Африка, Америка, Австралия, Океания) - 1 день.

Дербент - район местоположения метеостанции


Название, широта, долгота, высота метеостанции:
Дербент 42.1°ш. 48.3°д. -19 м над ур. моря [Российская Федерация]

Дополнительная информация

В oтличие oт бoльшинства пoгoдных сайтoв мы публикуем пoдрoбную метеoинфoрмацию в детальнoм прoфессиoнальнoм фoрмате.

Характеристики температуры и влажнoсти вoздуха измеряются на высoте 2 м в тени вдали oт зданий и деревьев.
Скoрoсть ветра измеряется на высoте 10 м (на урoвне рoста челoвека скoрoсть ветра ниже в 1.5-2 раза). Если метеoстанция нахoдится в гoрoде или в лесу, тo скoрoсть ветра занижена на 2-4 м/с пo сравнению с oткрытым местoм. Скoрoсть ветра над акватoриями крупных рек и oзёр, а также на вершинах хoлмoв на 2-5 м/с выше, чем в oбычных услoвиях.
Атмoсфернoе давление в разных тoчках местнoсти мoжет значительнo oтличаться oт давления на метеoстанции, в зависимoсти oт услoвий рельефа (при пoдъёме на 10 м давление пoнижается примернo на 1 мм рт.ст.).